ANA121 ROAH-RJFF

Flight info

Callsign ANA121
Flight time N/A
Altitude 41000
Route AMAMI Y25 GOKYO/N0478F400 Y25 ISKUP
Aircraft B772/H-SDE2E3FGHIJ5LORVWXY/LB1D1

Departure

Time 2026-04-26 18:48
Airport Naha International Airport (ROAH)

Arrival

Time N/A
Airport Fukuoka Airport (RJFF)
Time Latitude Longitude Altitude Speed Heading
2026-04-26 18:13 26.21006 127.64967 31 ft 0 kts 88°
2026-04-26 18:30 26.21006 127.64964 30 ft 3 kts 88°
2026-04-26 18:30 26.21006 127.64944 28 ft 4 kts 96°
2026-04-26 18:30 26.21011 127.64915 31 ft 4 kts 114°
2026-04-26 18:30 26.21026 127.64891 30 ft 4 kts 146°
2026-04-26 18:31 26.21043 127.64883 30 ft 1 kts 178°
2026-04-26 18:31 26.21047 127.64883 30 ft 0 kts 178°
2026-04-26 18:34 26.21017 127.64884 30 ft 13 kts 176°
2026-04-26 18:34 26.20935 127.64884 27 ft 10 kts 198°
2026-04-26 18:34 26.20917 127.64851 30 ft 0 kts 266°
2026-04-26 18:38 26.20917 127.64846 24 ft 5 kts 266°
2026-04-26 18:38 26.20899 127.64771 25 ft 12 kts 236°
2026-04-26 18:38 26.20808 127.64737 22 ft 15 kts 178°
2026-04-26 18:39 26.20701 127.64741 22 ft 15 kts 177°
2026-04-26 18:39 26.20602 127.64746 22 ft 13 kts 177°
2026-04-26 18:39 26.20513 127.64751 24 ft 13 kts 177°
2026-04-26 18:39 26.20423 127.64755 24 ft 13 kts 178°
2026-04-26 18:40 26.20344 127.64759 23 ft 11 kts 178°
2026-04-26 18:40 26.20267 127.64762 22 ft 11 kts 178°
2026-04-26 18:40 26.20163 127.64767 24 ft 20 kts 178°
2026-04-26 18:40 26.20023 127.64773 24 ft 20 kts 178°
2026-04-26 18:41 26.19853 127.64780 23 ft 20 kts 178°
2026-04-26 18:41 26.19711 127.64788 23 ft 20 kts 177°
2026-04-26 18:41 26.19571 127.64795 23 ft 20 kts 177°
2026-04-26 18:41 26.19430 127.64802 23 ft 20 kts 178°
2026-04-26 18:42 26.19279 127.64808 23 ft 25 kts 178°
2026-04-26 18:42 26.19104 127.64816 22 ft 25 kts 178°
2026-04-26 18:42 26.18929 127.64824 23 ft 25 kts 178°
2026-04-26 18:42 26.18763 127.64833 23 ft 23 kts 176°
2026-04-26 18:43 26.18625 127.64841 24 ft 15 kts 177°
2026-04-26 18:43 26.18521 127.64844 23 ft 15 kts 178°
2026-04-26 18:43 26.18416 127.64851 23 ft 15 kts 177°
2026-04-26 18:43 26.18315 127.64856 22 ft 14 kts 180°
2026-04-26 18:44 26.18244 127.64799 24 ft 14 kts 255°
2026-04-26 18:44 26.18242 127.64755 23 ft 0 kts 270°
2026-04-26 18:45 26.18242 127.64753 23 ft 3 kts 269°
2026-04-26 18:45 26.18241 127.64692 20 ft 9 kts 268°
2026-04-26 18:45 26.18283 127.64648 20 ft 9 kts 352°
2026-04-26 18:46 26.18294 127.64647 21 ft 0 kts 358°
2026-04-26 18:47 26.18472 127.64639 21 ft 62 kts 357°
2026-04-26 18:47 26.19183 127.64605 26 ft 140 kts 358°
2026-04-26 18:47 26.20305 127.64558 540 ft 165 kts 355°
2026-04-26 18:48 26.21402 127.64489 1732 ft 156 kts 355°
2026-04-26 18:48 26.22502 127.64440 2356 ft 166 kts 356°
2026-04-26 18:48 26.23747 127.64391 2590 ft 192 kts 356°
2026-04-26 18:48 26.25163 127.64319 2812 ft 213 kts 351°
2026-04-26 18:49 26.26117 127.63976 2946 ft 223 kts 331°
2026-04-26 18:49 26.27991 127.62742 3417 ft 247 kts 329°
2026-04-26 18:49 26.29517 127.61774 4065 ft 256 kts 330°
2026-04-26 18:49 26.31086 127.60784 4810 ft 262 kts 330°
2026-04-26 18:50 26.32680 127.59779 5594 ft 263 kts 329°
2026-04-26 18:50 26.33734 127.59114 6140 ft 264 kts 329°
2026-04-26 18:50 26.35348 127.58095 6890 ft 267 kts 329°
2026-04-26 18:50 26.36977 127.57067 7618 ft 271 kts 329°
2026-04-26 18:51 26.38628 127.56025 8371 ft 274 kts 329°
2026-04-26 18:51 26.40178 127.54807 8970 ft 276 kts 311°
2026-04-26 18:51 26.41096 127.52919 9639 ft 281 kts 284°
2026-04-26 18:51 26.41187 127.50762 10366 ft 288 kts 262°
2026-04-26 18:52 26.40471 127.48577 10603 ft 319 kts 238°
2026-04-26 18:52 26.38990 127.46626 10863 ft 339 kts 230°
2026-04-26 18:52 26.37377 127.44648 11599 ft 348 kts 231°
2026-04-26 18:52 26.35727 127.42663 12456 ft 351 kts 225°
2026-04-26 18:53 26.33580 127.41266 13307 ft 367 kts 202°
2026-04-26 18:53 26.31034 127.40785 14323 ft 373 kts 185°
2026-04-26 18:53 26.28396 127.40812 15025 ft 384 kts 182°
2026-04-26 18:53 26.25690 127.40890 15807 ft 392 kts 182°
2026-04-26 18:54 26.22945 127.40964 16690 ft 397 kts 183°
2026-04-26 18:54 26.20164 127.41011 17544 ft 402 kts 184°
2026-04-26 18:54 26.17345 127.41045 18351 ft 406 kts 183°
2026-04-26 18:54 26.14522 127.41531 18817 ft 423 kts 163°
2026-04-26 18:55 26.11937 127.43187 19458 ft 438 kts 141°
2026-04-26 18:55 26.09967 127.45799 20212 ft 445 kts 120°
2026-04-26 18:55 26.08902 127.48989 20932 ft 448 kts 98°
2026-04-26 18:55 26.08874 127.52482 21590 ft 446 kts 77°
2026-04-26 18:56 26.09521 127.55860 22079 ft 451 kts 74°
2026-04-26 18:56 26.10203 127.59245 22639 ft 458 kts 74°
2026-04-26 18:56 26.10891 127.62729 23363 ft 463 kts 74°
2026-04-26 18:56 26.11566 127.66253 24041 ft 467 kts 75°
2026-04-26 18:57 26.12229 127.69805 24656 ft 471 kts 75°
2026-04-26 18:57 26.12665 127.72178 25099 ft 475 kts 75°
2026-04-26 18:57 26.13548 127.77034 25831 ft 482 kts 75°
2026-04-26 18:57 26.14214 127.80717 26399 ft 487 kts 75°
2026-04-26 18:58 26.14884 127.84429 26967 ft 491 kts 75°
2026-04-26 18:58 26.15561 127.88169 27512 ft 496 kts 75°
2026-04-26 18:58 26.16340 127.91894 27914 ft 492 kts 66°
2026-04-26 18:58 26.17938 127.95224 28225 ft 485 kts 46°
2026-04-26 18:59 26.20214 127.97938 28760 ft 476 kts 34°
2026-04-26 18:59 26.22869 128.00054 29294 ft 466 kts 24°
2026-04-26 18:59 26.25633 128.01884 29708 ft 470 kts 23°
2026-04-26 18:59 26.28471 128.03716 30161 ft 473 kts 22°
2026-04-26 19:00 26.31330 128.05568 30585 ft 475 kts 22°
2026-04-26 19:00 26.34188 128.07449 31020 ft 478 kts 23°
2026-04-26 19:00 26.37056 128.09364 31388 ft 481 kts 23°
2026-04-26 19:00 26.39932 128.11302 31721 ft 485 kts 23°
2026-04-26 19:01 26.42825 128.13264 32028 ft 488 kts 23°
2026-04-26 19:01 26.45735 128.15242 32329 ft 491 kts 23°
2026-04-26 19:01 26.48621 128.17206 32696 ft 492 kts 23°
2026-04-26 19:01 26.51544 128.19196 33046 ft 493 kts 22°
2026-04-26 19:02 26.54479 128.21193 33411 ft 493 kts 22°
2026-04-26 19:02 26.57408 128.23186 33792 ft 493 kts 22°
2026-04-26 19:02 26.60339 128.25182 34172 ft 492 kts 22°
2026-04-26 19:02 26.62278 128.26502 34402 ft 492 kts 22°
2026-04-26 19:03 26.66192 128.29167 34870 ft 492 kts 22°
2026-04-26 19:03 26.69040 128.31323 35255 ft 501 kts 32°
2026-04-26 19:03 26.71451 128.34225 35590 ft 515 kts 43°
2026-04-26 19:03 26.73634 128.37425 35851 ft 518 kts 45°
2026-04-26 19:04 26.75788 128.40662 36118 ft 519 kts 45°
2026-04-26 19:04 26.77964 128.43886 36454 ft 518 kts 44°
2026-04-26 19:04 26.80134 128.47027 36793 ft 516 kts 44°
2026-04-26 19:04 26.82359 128.50184 37126 ft 515 kts 43°
2026-04-26 19:05 26.86819 128.56448 37849 ft 513 kts 43°
2026-04-26 19:05 26.89042 128.59576 38161 ft 512 kts 43°
2026-04-26 19:05 26.91262 128.62709 38432 ft 513 kts 43°
2026-04-26 19:06 26.93615 128.65652 38639 ft 500 kts 31°
2026-04-26 19:06 26.96431 128.67752 38789 ft 476 kts 17°
2026-04-26 19:06 26.99388 128.69440 38862 ft 479 kts 17°
2026-04-26 19:06 27.02325 128.71123 39026 ft 481 kts 17°
2026-04-26 19:07 27.05308 128.72858 39111 ft 484 kts 18°
2026-04-26 19:07 27.11302 128.76430 39262 ft 491 kts 19°
2026-04-26 19:07 27.14318 128.78257 39384 ft 492 kts 19°
2026-04-26 19:08 27.17333 128.80093 39550 ft 493 kts 19°
2026-04-26 19:08 27.20345 128.81931 39688 ft 494 kts 19°
2026-04-26 19:08 27.23363 128.83774 39931 ft 493 kts 19°
2026-04-26 19:08 27.26371 128.85611 40109 ft 492 kts 19°
2026-04-26 19:09 27.29390 128.87452 40212 ft 494 kts 19°
2026-04-26 19:09 27.35449 128.91146 40439 ft 496 kts 19°
2026-04-26 19:09 27.38481 128.92996 40575 ft 496 kts 19°
2026-04-26 19:10 27.41520 128.94852 40719 ft 497 kts 19°
2026-04-26 19:10 27.44523 128.96687 40845 ft 497 kts 19°
2026-04-26 19:10 27.47565 128.98547 40903 ft 499 kts 19°
2026-04-26 19:11 27.53683 129.02292 40956 ft 499 kts 20°
2026-04-26 19:11 27.59746 129.06016 40955 ft 490 kts 19°
2026-04-26 19:12 27.65714 129.09683 40964 ft 486 kts 19°
2026-04-26 19:12 27.71607 129.13299 40959 ft 485 kts 19°
2026-04-26 19:13 27.77539 129.16944 40971 ft 484 kts 19°
2026-04-26 19:13 27.83459 129.20589 40976 ft 485 kts 20°
2026-04-26 19:14 27.89390 129.24247 40973 ft 485 kts 20°
2026-04-26 19:14 27.95321 129.27910 40958 ft 485 kts 20°
2026-04-26 19:15 28.01202 129.31546 40968 ft 485 kts 20°
2026-04-26 19:15 28.07127 129.35214 40963 ft 485 kts 20°
2026-04-26 19:16 28.13048 129.38885 40958 ft 484 kts 20°
2026-04-26 19:16 28.18969 129.42560 40984 ft 485 kts 20°
2026-04-26 19:17 28.24888 129.46237 40953 ft 485 kts 20°
2026-04-26 19:17 28.30801 129.49917 40929 ft 485 kts 20°
2026-04-26 19:18 28.36672 129.53576 40945 ft 485 kts 20°
2026-04-26 19:18 28.42597 129.57270 40922 ft 485 kts 19°
2026-04-26 19:18 28.45646 129.58756 40894 ft 469 kts
2026-04-26 19:19 28.48801 129.59336 40929 ft 455 kts 358°
2026-04-26 19:19 28.55115 129.60139 40933 ft 459 kts 358°
2026-04-26 19:20 28.61516 129.61018 40934 ft 466 kts 359°
2026-04-26 19:20 28.67986 129.61990 40938 ft 471 kts 359°
2026-04-26 19:21 28.74470 129.62992 40941 ft 474 kts 359°
2026-04-26 19:21 28.81021 129.64005 40954 ft 476 kts 360°
2026-04-26 19:22 28.87580 129.65016 40936 ft 476 kts 360°
2026-04-26 19:22 28.94136 129.66027 40933 ft 474 kts 359°
2026-04-26 19:23 29.00673 129.67035 40955 ft 473 kts 360°
2026-04-26 19:23 29.07192 129.68040 40938 ft 472 kts 360°
2026-04-26 19:24 29.13679 129.69043 40934 ft 472 kts 360°
2026-04-26 19:24 29.23433 129.70506 40943 ft 472 kts 360°
2026-04-26 19:25 29.27795 129.71157 40935 ft 472 kts 360°